Regional Weather Roundup
Issued by NWS Glasgow, MT

Home | Current Version | Previous Version | Text Only | Print | Product List | Glossary On
Versions: 1 2 3 4 5 6 7 8 9 10 11 12 13 14 15 16 17 18 19 20 21 22 23 24 25 26 27 28 29 30 31 32 33 34 35 36 37 38 39 40 41 42 43 44 45 46 47 48 49 50
064
ASUS45 KGGW 112115
RWRGGW
HOURLY REGIONAL WEATHER ROUNDUP FOR NORTHEAST MONTANA
NATIONAL WEATHER SERVICE GLASGOW MONTANA
200 PM MST THU FEB 11 2016

NOTE: "FAIR" INDICATES FEW OR NO CLOUDS BELOW 12,000 FEET WITH NO
SIGNIFICANT WEATHER AND/OR OBSTRUCTIONS TO VISISBILITY.

NORTHEAST MONTANA


CITY           SKY/WX    TMP DP  RH WIND       PRES   REMARKS
GLASGOW        CLOUDY    32  24  72 CALM      30.18S
PLENTYWOOD       N/A     26  19  74 N3          N/A
WOLF POINT     SUNNY     31  21  66 NE5       30.20S
JORDAN           N/A     38  32  79 NE8       30.14R
WINNETT          N/A     55  27  34 CALM        N/A
SIDNEY         MOSUNNY   27  19  74 N9        30.19R
GLENDIVE       CLOUDY    28  27  93 N12       30.17R
MALTA            N/A     36  30  80 N3          N/A
SCOBEY           N/A     23  12  62 N5        30.14S

FORT PECK REPORTS


CITY           SKY/WX    TMP DP  RH WIND       PRES   REMARKS
FORT PECK        N/A     32  28  85 E5          N/A
THE PINES        N/A     32  27  81 NE6         N/A

SOUTHEAST MONTANA


CITY           SKY/WX    TMP DP  RH WIND       PRES   REMARKS
BILLINGS       MOSUNNY   59  19  21 NW20G30   30.14F
MILES CITY     CLOUDY    46  32  58 N16       30.12R
BAKER          CLOUDY    33  28  81 NW17      30.10R
LIVINGSTON     SUNNY     57  18  21 W21G28    30.20S

CENTRAL MONTANA


CITY           SKY/WX    TMP DP  RH WIND       PRES   REMARKS
HAVRE          PTSUNNY   38  32  79 W12       30.20R
LEWISTOWN      SUNNY     50  25  37 NW13G24   30.16S
GREAT FALLS    SUNNY     58  15  18 NW10G18   30.18S
CUT BANK       FAIR      47  27  45 N20       30.19S
HELENA         SUNNY     55  25  31 W10G17    30.22F
BUTTE          CLOUDY    48  25  40 N3        30.26F
BOZEMAN        CLOUDY    44  28  53 S3        30.25F

WESTERN MONTANA


CITY           SKY/WX    TMP DP  RH WIND       PRES   REMARKS
MISSOULA       FAIR      49  33  54 CALM      30.27F
KALISPELL      NOT AVBL

NORTH DAKOTA


CITY           SKY/WX    TMP DP  RH WIND       PRES   REMARKS
WILLISTON      CLOUDY    25  18  74 N7        30.19R
DICKINSON      LGT SNOW  24  19  81 NE7       30.07S
MINOT          CLOUDY    22  11  62 NW7       30.18S
BISMARCK       LGT SNOW  27  18  69 NE6       30.14S

SOUTHERN SASKATCHEWAN


CITY           SKY/WX    TMP DP  RH WIND       PRES   REMARKS
REGINA         CLOUDY    19  10  68 N14       30.22F
MOOSE JAW      LGT SNOW  16  12  86 NE9       30.25R
ESTEVAN        CLOUDY    23  14  68 NW6       30.19S
SWIFT CURRENT  CLOUDY    21  16  79 CALM      30.18R





USA.gov is the U.S. government's official web portal to all federal, state and local government web resources and services.